This is the latest recevied weather packets stored in our database for station/object OH2CHY-10. If no packets are shown the sender has not sent any weather packets the latest 10 day(s).
| Time | Temp. | Humidity | Pressure | Rain* | Wind** | Luminosity | Snow |
|---|---|---|---|---|---|---|---|
| 1777574629 | 13.89° C | 51% | 1020.2 hPa | - | - | - | - |
| 1777573729 | 13.89° C | 50% | 1020 hPa | - | - | - | - |
| 1777572828 | 14.44° C | 50% | 1020 hPa | - | - | - | - |
| 1777571929 | 14.44° C | 50% | 1020 hPa | - | - | - | - |
| 1777571028 | 15° C | 49% | 1019.8 hPa | - | - | - | - |
| 1777570128 | 15° C | 48% | 1019.8 hPa | - | - | - | - |
| 1777569228 | 15.56° C | 46% | 1019.8 hPa | - | - | - | - |
| 1777568328 | 16.11° C | 45% | 1019.8 hPa | - | - | - | - |
| 1777567428 | 17.22° C | 43% | 1019.8 hPa | - | - | - | - |
| 1777566528 | 17.78° C | 42% | 1019.8 hPa | - | - | - | - |
| 1777565628 | 17.78° C | 41% | 1019.6 hPa | - | - | - | - |
| 1777564728 | 17.78° C | 41% | 1019.5 hPa | - | - | - | - |
| 1777563828 | 17.22° C | 42% | 1019.6 hPa | - | - | - | - |
| 1777562928 | 17.22° C | 42% | 1019.7 hPa | - | - | - | - |
| 1777562028 | 17.22° C | 41% | 1019.6 hPa | - | - | - | - |
| 1777561127 | 17.78° C | 41% | 1019.6 hPa | - | - | - | - |
| 1777560228 | 18.33° C | 40% | 1019.7 hPa | - | - | - | - |
| 1777559327 | 17.78° C | 40% | 1019.8 hPa | - | - | - | - |
| 1777558427 | 18.89° C | 39% | 1019.8 hPa | - | - | - | - |
| 1777557527 | 18.89° C | 40% | 1019.8 hPa | - | - | - | - |
| 1777556627 | 17.78° C | 40% | 1019.9 hPa | - | - | - | - |
| 1777555727 | 18.33° C | 39% | 1019.9 hPa | - | - | - | - |
| 1777554827 | 18.33° C | 38% | 1020 hPa | - | - | - | - |
| 1777553927 | 19.44° C | 39% | 1020.1 hPa | - | - | - | - |
| 1777553027 | 19.44° C | 37% | 1020.2 hPa | - | - | - | - |
* Rain since midnight (hover to see other rain measurements)
** Current wind speed in m/s (hover to see current wind gust speed)